Temp
80 84 88 88 75 72 62 62 68 68 70 76 76 74 68 69 66 61 77 79 82 82 84 85 80 79 79 79 79 79 79 79 79 79 79 79 79 79 79 79 80 80 80 80 80 80 80 80 81
84 84 89 83 71 63 62 67 67 69 72 75 78 76 73 67 74 74 76 80 82 83 82 83 79 78 79 79 79 79 79 79 79 79 79 79 79 79 79 79 80 80 80 80 80 80 80 80 80
84 85 85 77 70 62 61 68 70 72 75 74 74 78 74 70 75 75 79 82 83 83 83 82 78 78 79 79 78 78 78 79 79 79 79 79 78 78 79 79 79 80 80 80 79 79 79 79 79
88 89 81 72 62 66 67 70 74 74 76 77 77 70 75 77 77 79 82 81 81 82 83 81 78 78 78 79 78 78 78 78 78 78 78 78 78 78 78 78 78 79 79 79 79 78 78 78 78
87 84 74 67 63 67 71 74 75 70 70 73 75 66 65 70 79 80 80 81 80 80 81 83 78 78 78 78 78 78 78 78 78 78 78 78 78 77 77 78 78 78 78 78 78 78 77 77 78
84 82 71 65 64 69 71 74 73 71 72 72 72 69 62 71 75 78 80 79 80 79 79 80 78 78 78 78 78 77 77 77 77 77 77 77 77 77 77 77 77 77 77 77 77 77 77 77 77
80 78 67 67 65 66 68 74 69 68 70 66 71 65 64 67 72 75 74 76 79 80 78 77 78 78 76 77 76 76 76 76 76 76 76 75 75 76 76 76 77 77 77 77 77 77 76 76 76
81 78 67 67 66 62 69 69 70 69 64 74 72 65 60 65 70 71 72 72 78 77 78 78 78 78 75 73 74 74 74 73 73 73 73 73 74 74 74 75 76 76 77 77 76 76 75 74 74
81 76 68 66 68 63 71 67 70 72 66 65 66 64 65 67 69 70 67 67 71 73 72 70 70 70 75 76 73 71 72 72 73 73 72 75 78 78 79 74 73 73 75 76 76 75 74 73 73
80 74 66 71 70 67 69 70 69 66 64 62 62 65 66 67 66 66 63 65 70 70 70 70 67 67 69 73 71 68 69 72 69 70 71 76 72 72 74 72 71 70 71 70 70 70 70 73 74
72 69 68 68 71 72 68 67 69 65 58 62 59 60 63 63 63 63 66 68 69 68 70 71 70 69 70 70 70 69 67 67 68 67 67 67 67 71 71 68 69 67 69 71 68 69 71 69 71
67 69 71 70 70 69 64 67 62 65 59 63 63 63 63 61 61 63 63 64 65 66 69 73 75 74 72 76 76 76 76 76 76 76 72 72 75 69 65 65 65 66 65 64 64 64 65 65 64
67 65 68 70 70 69 69 65 62 59 63 65 64 63 62 62 62 64 65 66 68 68 69 71 72 72 72 72 73 73 73 74 73 75 74 73 73 71 73 72 73 70 66 63 62 62 63 62 62
68 68 67 69 69 68 65 62 65 59 65 62 62 62 63 62 63 64 65 67 69 69 68 70 70 69 70 69 69 71 71 72 72 73 72 72 71 71 72 72 73 74 73 73 72 68 63 65 61
71 64 67 67 68 66 70 61 55 61 64 61 62 61 63 63 65 66 67 68 69 69 69 69 70 69 68 68 69 71 71 72 71 71 70 70 66 65 66 69 71 72 71 69 71 71 71 71 71
68 68 60 64 66 67 68 51 57 63 63 61 62 61 63 65 64 67 67 68 69 69 69 69 70 69 68 67 69 70 70 70 70 69 69 69 67 64 63 68 67 63 68 70 70 70 70 70 70
66 62 58 58 66 66 65 53 58 63 63 58 60 62 63 65 65 67 68 69 69 69 69 68 67 67 66 67 68 68 67 69 68 68 68 66 67 66 62 63 66 65 69 69 68 69 68 68 69
62 58 58 58 63 64 61 56 58 63 63 60 61 63 63 64 64 64 69 70 70 69 65 66 67 65 66 67 67 68 68 67 68 67 66 65 66 66 66 67 66 66 67 68 68 65 68 67 67
68 63 59 59 62 62 59 57 58 61 60 61 61 63 63 62 64 67 68 69 69 66 65 64 64 63 64 65 63 64 63 64 65 65 63 63 64 65 64 64 64 64 63 63 64 64 63 66 67
67 61 56 58 61 61 57 56 59 60 62 62 62 63 64 65 66 66 67 66 65 64 63 63 63 62 62 64 62 62 62 63 63 64 63 62 62 62 60 60 57 61 60 59 61 62 63 64 63
65 64 57 58 58 61 60 54 57 60 63 63 64 66 65 64 64 64 65 63 64 63 62 62 61 60 61 61 63 62 63 63 62 61 61 61 61 62 61 58 59 61 59 60 62 63 61 61 62
66 66 62 58 58 55 60 52 55 59 60 61 63 65 65 64 64 64 63 62 62 63 64 63 61 61 62 60 60 57 58 56 58 59 61 60 61 60 61 61 62 61 61 62 62 62 61 58 58
60 66 62 61 58 58 54 52 53 58 56 60 61 64 64 64 63 61 61 61 62 63 62 62 62 61 61 60 59 59 57 59 59 60 58 58 60 60 60 57 59 61 62 59 62 59 60 58 56
67 61 62 61 60 52 54 52 53 55 58 61 61 63 63 64 61 60 61 62 62 64 63 63 62 61 61 60 60 57 56 55 57 57 58 58 58 54 57 58 59 59 57 56 56 61 61 59 56
65 62 55 51 51 51 54 50 53 59 62 64 65 64 62 62 60 60 61 62 62 62 62 63 62 61 61 60 60 58 57 56 56 57 55 51 57 55 54 53 54 54 58 58 56 59 60 60 55
65 63 58 47 49 52 54 48 54 60 63 65 65 64 61 59 60 60 60 61 61 61 62 62 62 60 61 60 60 59 59 60 60 59 54 53 56 58 58 55 56 54 55 54 59 57 58 60 59
65 63 63 53 52 52 52 54 58 59 58 60 61 61 58 58 59 58 60 58 58 60 61 61 61 61 61 61 60 60 58 58 58 58 58 56 58 60 60 59 57 53 55 58 62 60 58 60 58
70 67 58 60 45 44 48 49 53 56 58 60 60 60 57 55 57 57 58 58 60 60 62 61 61 60 61 61 61 59 56 59 59 59 58 58 59 59 60 60 60 59 59 60 62 62 58 56 58
67 64 58 57 53 48 46 48 58 59 62 63 64 60 55 56 58 58 59 60 60 61 62 61 62 61 60 61 61 60 57 58 60 59 59 59 59 59 59 59 60 61 57 57 60 60 62 60 61
65 59 58 57 48 49 50 48 61 61 63 62 60 56 56 58 58 60 58 58 59 60 61 61 61 61 60 62 59 58 55 56 57 59 59 59 59 60 59 60 60 61 60 61 60 62 59 58 58
MSLP
1012.40 1012.31 1012.17 1011.69 1012.13 1013.16 1014.40 1015.71 1016.07 1015.95 1015.97 1016.27 1016.08 1016.17 1017.30 1017.80 1018.16 1019.36 1020.11 1019.95 1019.69 1019.71 1019.68 1019.67 1019.91 1019.83 1019.93 1019.96 1020.03 1020.08 1020.11 1020.11 1020.03 1020.08 1020.10 1020.19 1020.23 1020.33 1020.34 1020.25 1020.10 1020.08 1020.01 1019.97 1019.86 1019.80 1019.63 1019.42 1019.36
1012.43 1012.29 1011.84 1011.62 1012.19 1013.30 1015.03 1015.99 1015.98 1016.29 1016.50 1016.50 1016.45 1016.66 1017.08 1018.30 1018.97 1019.54 1019.85 1020.16 1019.95 1019.97 1020.11 1020.11 1020.21 1020.11 1020.10 1020.14 1020.20 1020.31 1020.31 1020.36 1020.42 1020.40 1020.38 1020.41 1020.41 1020.52 1020.55 1020.55 1020.52 1020.47 1020.38 1020.30 1020.29 1020.20 1020.02 1019.77 1019.69
1012.35 1012.14 1011.52 1011.97 1013.07 1014.21 1015.40 1016.04 1016.19 1016.54 1016.54 1016.52 1016.65 1017.11 1017.78 1019.02 1019.40 1019.80 1020.35 1020.07 1020.07 1020.12 1020.29 1020.31 1020.42 1020.43 1020.45 1020.41 1020.51 1020.62 1020.57 1020.55 1020.63 1020.67 1020.73 1020.69 1020.77 1020.82 1020.79 1020.86 1020.77 1020.67 1020.66 1020.68 1020.60 1020.57 1020.40 1020.29 1020.08
1012.02 1011.78 1012.54 1012.79 1014.30 1015.70 1016.03 1016.33 1016.46 1016.47 1016.74 1017.16 1017.23 1017.99 1019.29 1020.03 1019.70 1020.09 1020.20 1020.45 1020.44 1020.51 1020.61 1020.77 1020.76 1020.75 1020.79 1020.78 1020.82 1020.85 1020.86 1020.80 1020.97 1021.11 1021.08 1021.01 1021.03 1021.13 1021.08 1021.14 1021.22 1021.10 1021.05 1021.03 1020.98 1020.84 1020.72 1020.76 1020.61
1012.16 1011.86 1012.13 1013.75 1015.32 1016.38 1016.77 1016.75 1016.65 1017.03 1017.64 1017.86 1018.00 1019.42 1020.47 1021.27 1020.87 1020.78 1020.81 1020.82 1021.05 1021.10 1021.11 1021.07 1021.32 1021.30 1021.24 1021.27 1021.25 1021.26 1021.31 1021.24 1021.35 1021.42 1021.44 1021.41 1021.40 1021.29 1021.34 1021.44 1021.51 1021.44 1021.38 1021.34 1021.31 1021.23 1021.14 1021.04 1020.99
1011.68 1012.08 1012.50 1013.84 1015.66 1016.78 1017.46 1017.63 1017.51 1017.76 1018.29 1018.65 1018.99 1019.78 1021.67 1022.03 1021.50 1021.41 1021.51 1021.61 1021.68 1021.69 1021.75 1021.72 1021.67 1021.65 1021.58 1021.68 1021.74 1021.72 1021.67 1021.54 1021.62 1021.67 1021.72 1021.73 1021.70 1021.62 1021.52 1021.56 1021.63 1021.72 1021.61 1021.54 1021.43 1021.27 1021.33 1021.18 1021.20
1011.61 1012.19 1013.58 1014.85 1016.05 1017.06 1017.89 1018.39 1018.57 1018.86 1018.91 1019.47 1019.96 1020.49 1022.15 1022.47 1022.58 1022.55 1022.51 1022.49 1022.22 1022.16 1022.28 1022.33 1022.32 1022.26 1022.21 1022.13 1022.30 1022.30 1022.19 1021.96 1021.99 1021.99 1021.98 1021.98 1021.96 1021.85 1021.91 1021.88 1021.77 1021.63 1021.76 1021.71 1021.57 1021.42 1021.40 1021.41 1021.23
1012.17 1012.84 1014.07 1015.26 1016.02 1017.53 1018.40 1018.89 1019.38 1019.29 1019.98 1020.17 1020.51 1021.12 1022.47 1023.16 1023.33 1023.56 1023.04 1023.12 1022.75 1022.93 1022.78 1022.72 1022.74 1022.71 1023.00 1023.02 1022.85 1023.04 1022.86 1022.72 1022.70 1022.57 1022.45 1022.34 1022.15 1022.17 1022.05 1021.97 1021.80 1021.86 1021.73 1021.65 1021.67 1021.67 1021.69 1021.67 1021.50
1012.55 1013.03 1014.45 1015.64 1016.23 1017.92 1018.85 1019.11 1020.09 1020.63 1020.89 1021.61 1022.28 1022.76 1023.39 1023.74 1023.76 1023.51 1023.80 1023.71 1023.88 1023.83 1023.73 1023.77 1023.75 1023.69 1023.41 1023.43 1023.56 1023.44 1023.48 1023.32 1023.03 1022.88 1022.77 1022.41 1022.42 1022.23 1021.92 1022.25 1022.18 1022.04 1021.81 1021.53 1021.69 1021.81 1021.87 1021.90 1021.67
1012.90 1013.89 1015.77 1016.63 1017.29 1018.23 1019.03 1019.54 1020.34 1021.08 1021.81 1022.59 1023.21 1023.76 1024.13 1024.23 1024.25 1024.15 1024.38 1024.70 1024.56 1024.48 1024.62 1024.40 1024.48 1024.31 1024.12 1023.88 1023.90 1023.84 1023.73 1023.53 1023.62 1023.34 1023.20 1022.79 1022.80 1022.71 1022.51 1022.45 1022.53 1022.33 1022.11 1022.05 1022.22 1022.25 1022.33 1021.84 1021.58
1014.61 1015.54 1017.10 1017.86 1018.17 1018.84 1019.51 1020.33 1021.06 1021.64 1022.71 1023.44 1023.88 1024.49 1024.80 1025.09 1025.14 1025.02 1025.05 1025.18 1025.10 1025.12 1024.87 1024.75 1024.79 1024.63 1024.48 1024.32 1024.32 1024.15 1023.95 1023.95 1023.80 1023.58 1023.48 1023.30 1022.89 1022.68 1022.59 1022.64 1022.57 1022.51 1022.35 1022.10 1022.30 1022.43 1022.29 1022.27 1021.87
1015.74 1017.38 1017.65 1018.71 1019.26 1019.55 1020.21 1021.16 1022.04 1022.40 1023.68 1024.13 1024.52 1024.86 1025.11 1025.37 1025.45 1025.59 1025.57 1025.53 1025.37 1025.39 1025.23 1024.96 1024.78 1024.61 1024.71 1024.32 1024.21 1023.99 1023.86 1023.84 1023.55 1023.30 1023.32 1022.98 1022.74 1022.88 1022.99 1022.71 1022.71 1022.68 1022.69 1022.45 1022.38 1022.36 1022.48 1022.46 1022.59
1016.67 1018.29 1019.00 1019.45 1019.76 1020.29 1021.03 1021.78 1022.40 1023.57 1024.26 1024.73 1025.12 1025.46 1025.68 1025.80 1025.75 1025.84 1025.87 1025.84 1025.68 1025.52 1025.74 1025.59 1025.39 1025.29 1025.13 1024.95 1024.81 1024.65 1024.40 1024.13 1024.00 1023.66 1023.28 1023.11 1022.87 1022.69 1022.52 1022.54 1022.47 1022.46 1022.59 1022.59 1022.55 1022.64 1022.53 1022.35 1022.04
1017.58 1018.46 1019.35 1020.11 1020.30 1021.00 1021.46 1022.45 1022.83 1024.51 1024.78 1025.16 1025.49 1025.80 1025.95 1026.03 1026.07 1026.11 1026.15 1026.01 1025.98 1026.13 1026.22 1026.19 1026.07 1026.14 1025.85 1025.61 1025.50 1025.01 1024.74 1024.58 1024.26 1023.83 1023.50 1023.35 1023.16 1022.80 1022.45 1022.28 1022.24 1022.24 1022.08 1022.01 1022.03 1022.12 1022.38 1022.15 1022.25
1017.61 1018.41 1019.37 1020.16 1020.51 1020.97 1021.10 1022.48 1023.90 1024.75 1025.06 1025.37 1025.68 1025.98 1026.18 1026.32 1026.31 1026.34 1026.33 1026.34 1026.55 1026.61 1026.61 1026.39 1026.21 1026.24 1026.08 1025.98 1025.63 1025.29 1024.93 1024.68 1024.33 1024.05 1023.75 1023.49 1023.47 1023.32 1023.12 1022.65 1022.26 1022.16 1022.13 1022.16 1021.94 1021.69 1021.58 1021.31 1021.09
1017.10 1018.04 1018.92 1020.26 1020.44 1020.77 1020.93 1023.02 1024.38 1024.91 1025.07 1025.44 1025.79 1026.09 1026.21 1026.32 1026.50 1026.59 1026.73 1026.67 1026.69 1026.68 1026.57 1026.59 1026.47 1026.31 1026.21 1026.09 1025.77 1025.41 1025.15 1024.80 1024.54 1024.34 1024.07 1023.80 1023.54 1023.32 1023.05 1022.57 1022.58 1022.67 1022.34 1022.02 1021.66 1021.34 1021.09 1020.78 1020.53
1016.91 1017.50 1018.98 1020.19 1020.64 1020.67 1021.16 1022.95 1024.11 1024.68 1025.05 1025.59 1025.89 1026.09 1026.23 1026.35 1026.58 1026.73 1026.73 1026.68 1026.77 1026.69 1026.64 1026.68 1026.68 1026.66 1026.59 1026.33 1025.88 1025.54 1025.27 1024.87 1024.71 1024.46 1024.16 1024.02 1023.55 1023.30 1023.12 1022.81 1022.47 1022.58 1022.15 1021.87 1021.60 1021.31 1021.18 1020.77 1020.32
1015.65 1017.56 1019.10 1019.83 1020.61 1020.97 1021.58 1022.87 1023.73 1024.21 1024.75 1025.34 1025.70 1025.99 1026.18 1026.36 1026.58 1026.82 1026.64 1026.54 1026.45 1026.90 1027.20 1027.14 1027.03 1027.09 1026.75 1026.27 1025.87 1025.48 1025.22 1024.98 1024.73 1024.57 1024.38 1024.14 1023.62 1023.23 1022.89 1022.38 1022.48 1022.47 1022.06 1021.66 1021.44 1021.45 1021.11 1020.94 1020.51
1015.19 1016.90 1018.46 1020.02 1020.97 1021.16 1021.92 1022.84 1023.60 1024.08 1024.67 1024.91 1025.40 1025.74 1025.98 1026.29 1026.57 1026.62 1026.70 1026.75 1026.89 1027.37 1027.43 1027.47 1027.34 1027.27 1026.90 1026.43 1026.11 1025.78 1025.51 1025.25 1024.96 1024.81 1024.70 1024.32 1023.89 1023.37 1022.94 1022.66 1022.30 1022.15 1021.87 1021.55 1021.56 1021.49 1021.19 1020.58 1020.43
1015.40 1016.90 1018.90 1020.47 1021.17 1021.45 1022.25 1022.76 1023.37 1023.81 1024.07 1024.52 1025.03 1025.32 1025.61 1025.94 1026.20 1026.52 1026.79 1027.07 1027.36 1027.64 1027.82 1027.79 1027.67 1027.53 1027.24 1026.81 1026.69 1026.48 1025.97 1025.47 1025.32 1025.08 1024.81 1024.48 1024.12 1023.73 1023.45 1023.18 1022.97 1022.50 1022.13 1021.71 1021.48 1021.33 1020.99 1020.64 1020.50
1015.85 1016.52 1018.51 1019.31 1020.89 1021.47 1021.74 1022.27 1022.81 1023.40 1023.64 1024.22 1024.66 1024.92 1025.42 1025.81 1026.11 1026.65 1027.00 1027.52 1027.69 1027.88 1028.00 1028.00 1027.90 1027.73 1027.48 1027.29 1026.71 1026.33 1025.81 1025.44 1025.16 1025.08 1024.75 1024.44 1024.04 1023.65 1023.25 1023.06 1022.75 1022.22 1022.04 1021.52 1021.36 1021.21 1021.06 1020.47 1020.36
1015.56 1016.74 1017.91 1018.99 1019.60 1020.30 1021.38 1021.09 1022.12 1022.80 1023.16 1023.58 1024.00 1024.65 1025.15 1025.79 1026.37 1026.94 1027.41 1027.87 1027.97 1028.05 1028.16 1028.14 1028.00 1027.80 1027.49 1027.37 1026.87 1026.63 1026.15 1025.91 1025.73 1025.28 1024.64 1024.31 1023.97 1023.47 1023.01 1022.60 1022.24 1022.08 1021.84 1021.53 1021.19 1021.08 1020.99 1020.90 1020.37
1016.53 1017.44 1018.68 1019.06 1019.34 1019.86 1021.12 1021.40 1021.55 1022.42 1022.60 1022.79 1023.34 1024.33 1025.12 1025.84 1026.48 1027.24 1027.77 1028.07 1028.15 1028.21 1028.20 1028.13 1028.04 1027.83 1027.63 1027.41 1027.21 1026.75 1026.49 1026.28 1025.98 1025.34 1024.95 1024.32 1023.76 1023.33 1022.98 1022.69 1022.27 1021.83 1021.64 1021.57 1021.21 1021.15 1020.90 1020.88 1020.77
1016.79 1017.80 1018.50 1019.12 1019.29 1019.31 1020.27 1021.07 1021.03 1021.64 1021.77 1022.39 1023.39 1024.25 1025.07 1025.94 1026.94 1027.66 1028.10 1028.19 1028.20 1028.22 1028.18 1028.11 1028.01 1027.89 1027.78 1027.50 1027.21 1027.03 1026.89 1026.59 1025.99 1025.61 1024.91 1024.48 1024.12 1023.89 1023.24 1022.72 1022.21 1022.02 1021.94 1021.85 1021.58 1021.01 1020.78 1020.71 1020.85
1016.74 1017.05 1017.49 1017.95 1018.49 1019.10 1020.55 1021.15 1021.00 1021.60 1021.97 1022.27 1023.02 1024.22 1025.35 1026.30 1027.09 1027.72 1028.01 1028.14 1028.27 1028.27 1028.19 1028.08 1028.01 1027.83 1027.76 1027.49 1027.22 1027.15 1027.04 1026.66 1026.14 1025.64 1025.37 1025.15 1024.38 1024.04 1023.62 1023.31 1022.89 1022.62 1022.14 1021.78 1021.63 1021.06 1020.75 1020.70 1020.79
1015.92 1016.48 1016.66 1016.87 1017.88 1018.97 1020.56 1020.61 1021.38 1022.05 1022.40 1022.71 1023.46 1024.50 1025.79 1026.77 1027.41 1027.84 1028.23 1028.38 1028.45 1028.37 1028.23 1028.06 1027.98 1027.86 1027.72 1027.54 1027.34 1027.20 1026.96 1026.44 1026.01 1025.68 1025.58 1025.26 1024.66 1024.13 1023.62 1023.45 1023.12 1022.75 1022.49 1021.96 1021.49 1021.09 1021.04 1020.79 1020.79
1015.66 1016.38 1017.26 1017.53 1018.90 1019.01 1020.15 1020.95 1021.65 1022.32 1022.91 1023.39 1023.99 1024.90 1026.03 1026.93 1027.56 1028.01 1028.30 1028.60 1028.60 1028.44 1028.35 1028.29 1028.12 1027.93 1027.73 1027.58 1027.36 1027.13 1027.01 1026.64 1026.14 1025.81 1025.42 1025.12 1024.64 1024.01 1023.76 1023.32 1023.12 1023.01 1022.52 1021.86 1021.22 1021.09 1021.16 1021.07 1021.19
1015.54 1016.88 1017.26 1017.67 1018.41 1019.00 1020.01 1020.81 1021.22 1022.01 1022.44 1023.23 1024.10 1025.10 1026.43 1027.34 1027.84 1028.25 1028.51 1028.72 1028.71 1028.66 1028.47 1028.46 1028.31 1028.09 1027.83 1027.52 1027.28 1027.13 1027.05 1026.51 1026.14 1025.69 1025.35 1024.98 1024.66 1024.36 1023.91 1023.58 1023.21 1022.88 1022.51 1021.89 1021.29 1021.41 1021.66 1021.53 1021.55
1016.55 1016.88 1018.08 1018.78 1019.49 1019.55 1020.22 1021.45 1022.37 1022.41 1022.66 1023.14 1023.95 1025.32 1026.58 1027.33 1027.86 1028.30 1028.60 1028.71 1028.73 1028.62 1028.44 1028.40 1028.23 1028.01 1027.77 1027.51 1027.24 1027.04 1026.85 1026.39 1025.83 1025.62 1025.37 1025.06 1024.72 1024.53 1024.22 1023.85 1023.46 1023.13 1022.89 1022.43 1021.91 1021.84 1021.85 1021.76 1021.66
1017.75 1018.42 1018.81 1018.63 1020.05 1020.90 1021.17 1022.26 1022.99 1023.09 1023.35 1023.90 1024.76 1025.99 1026.92 1027.48 1027.97 1028.34 1028.55 1028.73 1028.65 1028.57 1028.48 1028.34 1028.27 1028.03 1027.87 1027.44 1027.37 1027.10 1026.90 1026.51 1026.05 1025.59 1025.35 1025.21 1024.87 1024.64 1024.43 1024.11 1023.78 1023.48 1023.17 1022.57 1022.41 1022.32 1022.46 1022.30 1022.17
Wind_Speed
8 4 1 1 3 7 7 5 1 7 10 14 10 9 14 8 7 8 2 4 9 9 7 9 8 12 13 14 13 12 11 10 10 11 11 12 12 12 12 11 11 12 14 14 14 13 12 10 13
6 2 0 2 6 8 6 4 9 6 3 1 10 12 12 9 7 5 2 6 9 9 7 8 9 11 13 13 12 10 10 10 10 10 10 11 11 11 11 11 11 13 13 14 14 13 14 13 14
3 1 2 4 4 8 6 4 6 9 6 3 5 11 7 6 6 4 4 7 9 10 8 9 11 11 12 13 11 10 9 9 9 9 9 9 9 9 9 10 10 12 12 13 13 12 13 12 10
0 2 4 8 15 10 5 2 6 11 9 9 12 9 8 15 3 6 8 9 10 10 9 11 12 12 13 13 12 11 9 9 8 7 7 8 8 7 8 8 9 10 11 11 11 11 11 11 10
2 1 4 10 14 8 8 8 7 10 7 11 6 9 5 11 12 12 11 11 11 11 11 12 14 13 14 14 13 12 10 9 8 7 7 7 6 6 6 6 7 8 9 10 10 10 10 9 7
2 1 6 8 12 11 9 10 16 16 12 11 14 10 5 6 12 13 13 13 13 13 13 12 14 15 15 15 14 13 13 12 9 8 7 6 6 6 7 6 6 6 7 8 9 9 9 8 5
2 2 5 9 11 10 6 6 9 10 7 7 2 6 3 10 9 13 14 13 14 14 14 13 12 14 16 17 19 17 15 15 14 12 13 11 10 11 9 9 7 7 6 6 7 9 9 10 10
4 3 4 3 6 6 4 4 7 7 7 2 8 5 5 4 10 11 13 11 15 14 14 13 13 13 12 12 19 18 17 16 15 16 15 12 9 10 10 8 8 9 7 4 4 6 6 7 9
1 4 5 3 5 8 9 4 7 8 11 8 8 11 10 10 8 13 13 13 13 13 14 13 12 11 11 12 13 14 17 17 15 12 13 9 7 8 8 9 10 12 12 10 5 6 6 5 8
5 4 4 2 8 11 10 9 8 6 11 10 10 14 13 13 10 15 12 10 14 14 13 10 8 8 8 8 9 7 7 8 6 6 7 6 6 6 7 8 11 10 10 10 10 8 7 5 4
6 5 9 12 17 15 16 16 7 11 8 8 9 12 11 13 11 12 12 12 12 10 10 10 8 7 7 7 4 4 3 3 4 5 5 4 3 4 4 3 3 4 9 5 6 6 5 6 4
10 9 9 13 11 9 9 7 11 12 8 10 10 9 11 11 10 10 10 10 9 10 11 11 11 10 10 7 7 8 8 8 7 7 6 5 3 3 2 2 3 3 2 3 2 2 4 5 5
20 14 14 15 17 16 15 12 13 12 11 11 10 11 11 10 11 9 8 8 7 10 9 10 9 9 7 8 6 7 8 8 9 8 7 5 5 4 3 3 3 3 2 2 2 3 3 2 3
14 23 17 11 13 12 14 9 4 6 10 11 11 10 9 9 8 8 7 7 8 9 9 8 8 8 8 8 8 6 7 7 8 8 7 7 5 4 3 3 3 3 3 4 4 3 3 5 3
16 16 11 8 9 11 6 12 8 8 8 9 9 9 8 8 6 7 5 7 7 6 4 6 7 7 8 8 7 6 7 8 8 7 8 8 6 6 6 5 4 4 4 4 4 5 6 7 5
7 6 5 4 2 3 2 5 7 5 7 7 7 7 7 6 5 4 4 4 3 3 5 6 6 8 9 8 7 6 7 7 7 6 7 8 7 5 6 6 4 3 5 5 5 5 7 7 6
2 5 4 6 1 3 1 7 10 5 6 7 5 6 5 5 3 2 2 2 2 2 4 6 8 10 9 8 7 8 8 7 7 6 6 10 9 8 5 4 5 5 5 5 4 6 6 7 8
8 6 4 5 4 2 7 8 5 4 7 7 6 5 5 4 2 1 2 3 4 5 6 7 7 9 8 7 7 7 8 8 8 7 8 10 8 8 7 4 5 5 5 6 5 6 6 7 7
11 12 12 7 3 6 7 8 9 6 7 7 6 6 4 4 2 2 4 6 5 7 7 9 9 8 8 7 8 8 9 7 7 7 11 11 10 10 8 6 5 5 6 7 7 6 7 7 6
14 17 8 7 3 2 8 6 6 6 6 7 8 7 6 4 2 3 5 6 8 8 8 7 8 8 7 6 6 6 7 6 7 8 10 10 11 10 8 7 5 7 6 7 8 5 6 6 6
11 6 12 8 8 6 10 5 8 5 6 8 8 6 5 4 2 3 6 7 7 8 7 7 8 8 8 8 7 7 7 8 7 9 8 10 10 9 8 6 6 7 5 6 8 6 7 7 5
4 4 16 18 8 3 6 2 7 7 8 10 10 7 6 5 5 5 5 6 7 7 6 7 8 8 9 10 9 10 8 9 9 8 9 9 9 10 9 9 7 6 6 7 6 5 6 5 7
6 12 12 9 5 8 8 5 6 7 9 9 8 6 6 4 5 7 7 6 7 7 7 7 7 8 10 10 9 8 9 8 7 8 11 10 8 9 10 8 6 5 2 5 5 5 5 3 6
20 16 11 4 1 4 4 4 4 5 3 7 6 6 5 4 7 7 6 5 7 7 7 7 8 8 10 10 10 10 11 11 9 10 9 10 8 7 10 11 7 6 5 5 5 6 6 3 3
6 9 3 4 4 2 2 5 3 2 2 3 7 9 6 5 7 6 5 6 7 8 8 8 10 10 10 11 11 11 10 9 8 9 7 8 8 7 7 6 6 6 8 7 7 6 5 2 2
12 1 6 8 4 2 3 4 4 4 4 4 7 9 8 7 7 6 4 6 7 7 8 9 10 10 10 10 11 9 9 7 6 7 6 6 6 7 9 7 7 7 6 6 6 4 3 3 5
6 3 1 5 2 3 2 2 5 2 3 4 7 7 7 7 6 4 4 5 6 7 7 8 10 10 10 10 9 9 8 8 8 7 6 6 7 6 7 7 7 6 7 6 4 5 6 6 6
5 5 2 2 2 3 2 3 4 3 5 6 7 6 7 6 5 4 5 5 6 6 6 7 8 9 9 9 9 8 7 7 7 6 7 7 7 8 7 8 8 7 8 8 6 6 6 5 5
1 2 6 4 4 4 2 4 5 7 2 3 5 6 8 7 5 3 3 4 5 6 6 7 8 9 10 9 9 9 7 8 7 6 6 7 6 6 7 8 8 8 8 6 7 8 9 8 7
7 5 4 4 4 4 3 4 6 6 6 6 2 7 7 6 4 1 2 4 5 6 7 7 8 9 9 9 8 8 6 7 7 7 6 6 6 6 6 7 6 7 7 8 9 8 6 7 6
Wind_Direction
129 111 160 242 78 80 78 66 61 89 76 60 69 74 82 49 16 83 19 20 62 67 75 91 92 92 89 93 96 100 101 97 90 93 97 97 96 92 87 81 82 79 75 71 73 72 65 60 109
136 92 107 90 96 97 82 108 97 75 96 295 83 97 66 70 59 88 97 39 62 69 75 77 75 79 84 86 85 90 95 97 98 98 99 100 99 98 94 87 80 78 77 74 74 74 70 76 112
131 353 25 57 68 78 97 90 91 86 80 100 99 47 47 25 62 72 79 78 69 63 63 65 66 68 74 76 77 80 83 87 89 92 98 99 92 87 84 81 76 73 70 67 71 70 70 74 89
193 143 98 74 90 54 87 92 131 110 65 53 110 67 79 25 40 88 95 69 70 60 56 57 62 64 63 67 64 64 67 70 75 81 85 87 88 81 76 69 66 65 63 61 62 64 61 63 76
46 63 88 100 88 91 67 69 99 92 86 66 93 93 65 13 73 80 75 70 66 60 51 58 55 58 63 63 60 58 58 63 60 65 65 65 64 66 58 47 43 44 43 45 46 47 49 51 60
101 321 130 106 104 103 82 63 88 93 95 80 89 102 77 32 57 67 68 63 57 54 49 45 51 59 65 62 58 54 46 44 45 46 55 47 38 28 27 21 19 22 25 23 29 32 30 36 55
106 70 62 97 115 104 98 60 70 80 93 55 349 97 72 42 52 61 57 54 57 56 52 48 47 50 47 62 53 45 43 42 39 40 40 40 36 27 13 12 356 353 356 3 11 21 30 39 50
91 81 106 92 130 104 98 96 89 55 66 44 6 134 123 55 73 74 68 60 59 51 46 51 50 50 48 42 51 43 42 37 33 32 27 23 19 13 14 343 7 328 313 328 349 7 35 45 50
147 96 89 103 152 119 141 114 59 62 75 47 52 63 79 76 79 82 59 52 53 53 53 51 48 42 51 50 43 43 36 36 33 26 24 18 10 358 358 12 357 357 344 316 354 27 51 34 55
30 69 62 34 111 121 100 99 110 97 84 80 76 72 70 72 61 67 63 64 65 58 50 50 46 42 45 51 45 47 36 29 19 26 13 10 19 17 16 22 24 15 16 33 19 18 22 356 37
42 84 103 82 115 115 102 70 93 105 61 59 88 81 77 75 71 76 72 65 65 61 60 52 56 55 59 55 43 30 26 8 359 9 3 349 3 0 12 7 22 26 26 25 19 357 1 348 345
103 61 109 123 118 103 86 98 86 83 96 99 95 101 93 83 74 72 72 67 63 58 53 53 52 61 54 48 38 34 29 15 7 356 342 349 353 28 9 18 16 20 18 28 14 355 343 347 334
96 97 87 107 105 99 115 91 93 94 101 98 93 85 85 85 86 80 79 74 78 68 55 42 41 42 43 46 35 31 23 15 359 344 328 330 329 350 359 20 18 24 5 334 305 282 287 271 304
109 114 110 103 109 125 110 110 103 89 113 101 98 98 94 97 99 93 85 84 65 57 44 36 40 31 29 31 19 18 18 3 356 346 342 314 320 327 330 342 333 325 347 341 313 293 266 271 232
114 102 100 97 107 123 116 61 85 123 108 101 103 104 103 89 90 86 82 68 43 47 41 42 45 37 33 16 8 6 8 358 352 347 348 334 331 329 314 309 309 321 323 302 297 297 291 288 252
116 113 126 163 2 94 285 115 124 135 132 121 110 112 119 108 94 71 52 48 35 34 27 34 25 22 21 16 7 358 359 351 349 352 341 342 349 332 305 299 294 315 305 308 303 303 294 285 286
110 155 137 174 297 124 6 138 151 164 156 125 131 142 130 119 119 88 26 340 303 343 18 31 28 20 8 4 1 355 350 347 346 345 347 348 337 336 319 302 309 291 289 285 301 295 292 293 289
173 150 164 168 162 166 118 128 134 135 149 138 149 159 156 152 144 251 305 331 321 34 39 43 32 16 3 359 353 351 348 349 345 352 354 348 345 346 342 319 299 285 281 281 298 296 294 287 292
137 140 141 119 69 136 130 129 145 128 138 155 164 177 175 187 218 263 31 34 60 61 60 40 29 15 5 359 354 349 347 338 338 347 346 345 345 343 332 327 321 306 300 316 320 297 294 286 271
132 129 121 136 115 108 158 135 157 159 173 170 177 185 183 180 225 95 48 57 65 63 48 34 23 16 11 1 351 337 335 341 341 345 342 347 343 341 335 326 305 314 314 300 284 289 290 280 277
149 149 170 144 135 113 160 164 175 171 160 174 186 172 176 194 237 60 59 66 70 57 34 23 21 13 16 3 353 352 354 352 351 349 344 341 334 328 322 308 296 295 280 289 300 289 276 288 287
164 241 156 146 162 157 202 191 199 178 188 195 175 181 177 168 114 77 80 80 65 43 30 31 24 22 18 9 2 3 358 348 348 338 343 336 338 333 329 315 302 302 304 301 297 286 272 268 280
81 120 129 140 109 143 190 263 119 179 214 215 168 159 163 140 113 92 87 71 53 31 26 21 14 21 15 7 3 355 351 347 336 347 341 353 351 353 350 334 316 307 304 315 298 294 280 270 280
126 115 113 105 99 242 155 270 141 183 184 132 150 144 146 133 108 98 88 62 38 25 18 16 10 15 10 6 6 5 354 339 344 349 358 354 350 345 354 3 26 20 355 345 327 315 288 259 254
178 170 149 223 214 315 129 211 2 212 82 134 155 138 126 114 120 108 67 32 19 18 14 7 10 2 359 1 4 2 345 339 334 346 1 335 353 352 351 346 356 357 357 342 334 343 346 329 145
176 222 294 297 272 60 159 235 83 30 78 99 119 125 115 109 113 101 61 18 15 12 9 6 3 2 358 354 355 347 350 344 337 353 347 328 346 344 358 338 31 0 345 315 324 41 9 69 95
150 219 53 108 97 229 135 154 154 90 80 133 141 137 123 121 127 105 54 26 7 9 12 4 1 353 355 354 344 348 348 341 344 346 337 341 353 349 355 358 13 346 343 349 16 56 66 77 89
27 106 256 54 269 287 115 2 336 274 212 183 192 165 135 136 141 90 36 16 11 358 358 355 356 350 343 341 345 338 324 338 342 341 352 357 358 355 2 2 3 9 7 358 45 83 70 72 68
39 77 65 95 344 335 11 76 360 326 318 253 227 171 158 164 141 87 35 27 11 355 355 355 353 350 347 338 339 331 337 324 343 354 358 2 357 0 6 2 5 15 12 5 55 68 63 59 67
63 49 18 345 99 48 1 78 1 336 343 328 131 146 159 151 146 70 6 10 5 360 360 353 348 349 338 345 340 335 330 336 352 0 6 358 2 8 1 1 10 21 26 14 52 53 50 51 53